Weather History for Corpus Christi, TX

Change the Weather History Date:

Monday, February 20, 2012

  Actual Average Record
Temperature  
Mean Temperature 64 °F 61 °F  
Max Temperature 73 °F 71 °F 93 °F (1996)
Min Temperature 54 °F 52 °F 35 °F (1978)
Degree Days  
Heating Degree Days 1 5  
Month to date heating degree days 110 135  
Since 1 July heating degree days 566 762  
Cooling Degree Days 0 2  
Month to date cooling degree days 40 33  
Year to date cooling degree days 101 63  
Growing Degree Days 12 (Base 50)    
Moisture  
Dew Point 57 °F    
Average Humidity 77    
Maximum Humidity 93    
Minimum Humidity 61    
Precipitation  
Precipitation 0.00 in 0.06 in 2.99 in (1958)
Month to date precipitation 3.40 1.33  
Year to date precipitation 3.85 2.87  
Snow  
Snow 0.00 in - - ()
Month to date snowfall 0.0  
Since 1 July snowfall 0.0  
Snow Depth 0.00 in    
Sea Level Pressure  
Sea Level Pressure 30.03 in    
Wind  
Wind Speed 9 mph (SE)    
Max Wind Speed 22 mph    
Max Gust Speed 28 mph    
Visibility 10 miles    
Events      
T = Trace of Precipitation, MM = Missing Value Source: NWS Daily Summary

Daily Weather History Graph

Daily Weather History Graph

Search for Another Location

Airport:

Trip Planner

Search our weather history database for the weather conditions in past years. The results will help you decide how hot, cold, wet, or windy it might be!

Date:

Astronomy

Feb. 20, 2012 Rise Set
Actual Time 7:03 AM CST 6:24 PM CST
Civil Twilight 6:39 AM CST 6:48 PM CST
Nautical Twilight 6:12 AM CST 7:15 PM CST
Astronomical Twilight 5:45 AM CST 7:42 PM CST
Moon 5:58 AM CST (2/20) 5:31 PM CST (2/20)
Length of Visible Light 12h 08m
Length of Day
11h 20m
Waning Crescent, 1% of the Moon is Illuminated
Feb 20
Waning Crescent
Feb 21
New
Feb 29
First Quarter
Mar 8
Full
Mar 14
Last Quarter

Hourly Weather History & Observations

Time (CST) Temp. Dew Point Humidity Pressure Visibility Wind Dir Wind Speed Gust Speed Precip Events Conditions
12:02 AM 55.4 °F 51.8 °F 88% 30.04 in 10.0 mi SE 5.8 mph - N/A   Scattered Clouds
12:45 AM 55.4 °F 51.8 °F 88% 30.04 in 10.0 mi Calm Calm - N/A   Mostly Cloudy
12:51 AM 55.9 °F 52.0 °F 87% 30.04 in 10.0 mi ESE 3.5 mph - N/A   Mostly Cloudy
1:51 AM 57.0 °F 52.0 °F 83% 30.02 in 10.0 mi Calm Calm - N/A   Mostly Cloudy
2:51 AM 54.0 °F 52.0 °F 93% 30.00 in 10.0 mi Calm Calm - N/A   Mostly Cloudy
3:15 AM 53.6 °F 51.8 °F 94% 29.99 in 10.0 mi Calm Calm - N/A   Scattered Clouds
3:51 AM 54.0 °F 51.1 °F 90% 29.99 in 10.0 mi Calm Calm - N/A   Partly Cloudy
4:51 AM 57.0 °F 53.1 °F 87% 29.98 in 10.0 mi ESE 5.8 mph - N/A   Partly Cloudy
5:51 AM 57.0 °F 53.1 °F 87% 29.98 in 10.0 mi East 5.8 mph - N/A   Partly Cloudy
6:51 AM 57.0 °F 54.0 °F 89% 29.99 in 10.0 mi ESE 6.9 mph - N/A   Partly Cloudy
7:51 AM 61.0 °F 57.0 °F 87% 30.01 in 10.0 mi East 5.8 mph - N/A   Partly Cloudy
8:51 AM 64.0 °F 59.0 °F 84% 30.03 in 10.0 mi SE 9.2 mph - N/A   Scattered Clouds
9:51 AM 68.0 °F 60.1 °F 76% 30.05 in 10.0 mi SE 15.0 mph - N/A   Scattered Clouds
10:51 AM 71.1 °F 57.9 °F 63% 30.06 in 10.0 mi SSE 19.6 mph 25.3 mph N/A   Mostly Cloudy
11:51 AM 72.0 °F 57.9 °F 61% 30.05 in 10.0 mi SSE 16.1 mph - N/A   Mostly Cloudy
12:51 PM 72.0 °F 57.9 °F 61% 30.03 in 10.0 mi SSE 17.3 mph - N/A   Overcast
1:51 PM 72.0 °F 59.0 °F 64% 30.01 in 10.0 mi SSE 20.7 mph - N/A   Overcast
2:51 PM 72.0 °F 60.1 °F 66% 30.00 in 10.0 mi SE 13.8 mph - N/A   Mostly Cloudy
3:51 PM 72.0 °F 60.1 °F 66% 30.00 in 10.0 mi SE 15.0 mph - N/A   Mostly Cloudy
4:51 PM 71.1 °F 60.1 °F 68% 30.00 in 10.0 mi SSE 13.8 mph - N/A   Mostly Cloudy
5:51 PM 70.0 °F 61.0 °F 73% 30.01 in 10.0 mi ESE 10.4 mph - N/A   Scattered Clouds
6:51 PM 66.9 °F 61.0 °F 81% 30.02 in 10.0 mi SE 9.2 mph - N/A   Partly Cloudy
7:51 PM 66.0 °F 61.0 °F 84% 30.04 in 10.0 mi SE 9.2 mph - N/A   Partly Cloudy
8:51 PM 64.9 °F 61.0 °F 87% 30.07 in 10.0 mi SE 5.8 mph - N/A   Partly Cloudy
9:51 PM 64.0 °F 61.0 °F 90% 30.09 in 10.0 mi SE 5.8 mph - N/A   Partly Cloudy
10:51 PM 63.0 °F 60.1 °F 90% 30.10 in 10.0 mi SE 6.9 mph - N/A   Scattered Clouds
11:51 PM 63.0 °F 60.1 °F 90% 30.11 in 10.0 mi East 5.8 mph - N/A   Scattered Clouds